User: anonymous   Login
Location: Unspecified
(0.0000°N, 0.0000°E)
Time: 04:56:10
(UTC+00:00)
Language:

USA 224 - Orbit

View from above orbital plane
View from above orbital plane
View from above satellite
View from above satellite

Ground track
Ground track

The orbit data is extracted from the following two-line orbital elements,

1 37348U 11002A   17253.90002962 0.00008500  00000-0  80407-4 0    04
2 37348  97.9009   4.9541 0522596 298.3904  61.6094 14.80364350    08
Epoch (UTC): 10 September 2017 21:36:02
Eccentricity: 0.0522596
inclination: 97.9009°
perigee height: 262 km
apogee height: 994 km
right ascension of ascending node: 4.9541°
argument of perigee: 298.3904°
revolutions per day: 14.80364350
mean anomaly at epoch: 61.6094°
orbit number at epoch: 0

The dashed part of the orbit path shows where the satellite is in the earth's shadow,  

DLR